OneWeb SL0643

operational
NORAD ID: 55807 Int'l Des: 2023-029 Owner: ONEWEBN Country: UK Constellation: oneweb
LEOCIRCULARPOLARONEWEB_TYPE

About OneWeb SL0643

Description loading...

Live Position

Loading 3D Globe...

Upcoming Passes

Altitude History

Altitude vs Time

uPlot chart will show altitude changes over time

Two-Line Element Set

1 55807U 23029M 26074.59534329 -.00000214 00000-0 -61174-3 0 9991
2 55807 87.8971 308.4154 0002354 86.6807 273.4592 13.14503014147096
Epoch: Mar 15, 2026 • Age: 6 hours

Current Status

Altitude 1209.6 km
Velocity 7.25 km/s
Sub-Earth Point -4.34°S, 4.52°E
Launch Date Mar 9, 2023
Age 3 years
Type internet

Technical Details

Classification Payload
Mass 148.00 kg
Dry Mass 140.00 kg
Total Mass 148.00 kg
Length 1.30 m
Diameter 1.00 m
Span 5.00 m
Shape Trapezoid+2 pan
Manufacturer ONEWUS
Bus Type ARROW
Phase Status In Orbit
Owner/State ONEWEBN/UK

Large Constellations

Loading constellations...